Location: Asheville, NC
(35.6000°N, 82.5500°W)
Time: 16:39:47
(UTC-05:00)

nSIGHT-1 - Visible Passes

Search period start: 19 January 2018 00:00
Search period end: 29 January 2018 00:00
Orbit: 386 x 394 km, 51.6° (Epoch: 19 January)

Date Brightness Start Highest point End Pass type
(mag) Time Alt. Az. Time Alt. Az. Time Alt. Az.
21 Jan ? 19:54:08 10° SW 19:54:40 14° SSW 19:54:40 14° SSW visible
22 Jan ? 18:58:00 10° S 19:00:32 23° SE 19:00:42 22° SE visible
23 Jan ? 19:36:34 10° WSW 19:39:03 47° W 19:39:03 47° W visible
24 Jan ? 18:39:47 10° SSW 18:42:51 51° SE 18:44:54 19° ENE visible
24 Jan ? 20:17:10 10° WNW 20:17:17 11° WNW 20:17:17 11° WNW visible
25 Jan ? 19:19:22 10° W 19:22:10 29° NW 19:23:02 25° N visible
26 Jan ? 18:22:05 10° SW 18:25:12 66° NW 18:28:20 10° NE visible
27 Jan ? 19:02:32 10° WNW 19:04:42 17° NNW 19:06:40 11° N visible
